SCP
0 0 0 0 0 0 0 0 0 -0 0 0 0 0 0 0 0 0 0 0 0 0 0 0 0 0 0 0 0 0 0 0 0 0 0 0 0 0 0 0 0 0 0 0 0
0 0 0 0 0 0 0 0 0 -0 0 0 0 0 0 0 0 0 0 0 0 0 0 0 0 0 0 0 0 0 0 0 0 0 0 0 0 0 0 0 0 0 0 0 0
0 -0 0 0 0 0 0 0 0 0 -0 0 0 0 0 0 0 0 0 0 0 0 0 0 0 0 0 0 0 0 0 0 0 0 0 0 0 0 0 0 0 0 0 0 0
-0 -0 -0 -0 0 0 0 0 0 0 0 -0 0 0 0 0 0 0 0 0 0 0 0 0 0 0 0 0 0 0 0 0 0 0 0 0 0 0 0 0 0 0 0 0 0
-0 -0 -0 -0 -0 -0 -0 -0 0 0 0 0 0 0 0 0 0 0 0 0 -0 0 0 0 0 0 0 0 0 0 0 0 0 0 0 0 0 0 0 0 0 0 0 0 0
0 -0 -0 -0 -0 -0 -0 -0 -0 -0 -0 -0 0 0 0 0 0 0 0 0 0 0 0 0 0 0 0 0 0 0 0 0 0 0 0 0 0 0 0 0 0 0 0 0 0
0 0 -0 -0 -0 -0 -0 -0 -0 -0 -0 -0 0 0 0 0 0 0 0 0 0 0 0 0 0 0 0 0 0 0 0 0 0 0 0 0 0 0 0 0 0 0 0 0 0
-0 0 0 -0 -0 -0 0 -0 -0 -0 -0 -0 -0 0 0 0 0 0 0 0 0 0 0 0 0 0 0 0 0 0 0 0 0 0 0 0 0 0 0 0 0 0 0 0 0
-0 -0 0 0 0 -0 -0 -0 0 -0 -0 -0 -0 0 0 0 0 0 0 0 0 0 0 0 0 0 0 0 0 0 0 0 0 0 0 0 0 0 0 0 0 0 0 0 0
-0 -0 -0 -0 0 -0 0 -0 0 -0 0 0 0 0 0 0 0 0 0 0 0 0 0 0 0 0 0 0 0 0 0 0 0 0 0 0 0 0 0 0 0 0 0 0 0
-0 -0 -0 -0 -0 -0 0 0 0 0 0 0 0 0 0 0 0 0 0 0 0 0 0 0 0 0 0 0 0 0 0 0 0 0 0 0 0 0 0 0 0 0 0 0 0
-0 -0 -0 -0 -0 0 -0 0 0 0 0 0 0 0 0 0 0 0 0 0 0 0 0 0 0 0 0 0 0 0 0 0 0 0 0 0 0 0 0 0 0 0 0 0 0
0 0 0 -0 -0 0 -0 -0 0 0 0 0 0 0 0 0 0 0 0 0 0 0 0 0 0 0 0 0 0 0 0 0 0 0 0 0 0 -0 0 0 0 0 0 0 0
-0 -0 -0 -0 -0 0 -0 0 0 0 0 0 0 0 0 0 0 0 0 0 0 0 0 0 0 0 0 0 0 0 0 0 0 0 0 0 0 0 0 0 0 0 0 0 0
-0 -0 0 -0 -0 0 0 0 0 0 0 0 0 0 0 0 0 0 0 0 0 0 0 0 0 0 0 0 0 0 0 0 0 0 0 0 0 0 0 0 0 0 0 0 0
-0 -0 -0 0 0 -0 -0 -0 0 0 0 0 0 0 0 0 0 0 0 0 0 0 0 0 0 0 0 0 0 0 0 0 0 0 0 0 0 0 0 0 0 0 0 0 0
-0 -0 -0 0 0 -0 -0 0 0 0 0 0 0 0 0 0 0 0 0 0 0 0 0 0 0 0 0 0 0 0 0 0 0 0 0 0 0 0 0 0 0 0 0 0 0
-0 -0 0 0 -0 -0 -0 0 -0 0 0 0 0 0 0 0 0 0 0 0 0 0 0 0 0 0 0 0 0 0 0 0 0 0 0 0 0 0 0 0 0 0 0 0 0
-0 0 0 0 -0 -0 -0 -0 0 0 0 0 0 0 0 0 0 0 0 0 0 0 0 0 0 0 0 0 0 0 0 0 0 0 0 0 0 0 0 0 0 0 0 0 0
0 0 0 0 0 -0 0 0 0 0 0 0 0 0 0 0 0 0 0 0 0 0 0 0 0 0 0 0 0 0 0 0 0 0 0 0 0 0 0 0 0 0 0 0 0
0 0 0 -0 0 0 0 0 0 0 0 0 0 0 0 0 0 0 0 0 0 0 0 0 0 0 0 0 0 0 0 0 0 0 0 0 0 0 0 0 0 0 0 0 0
0 0 0 0 0 0 0 0 0 0 0 0 0 0 0 0 0 0 0 0 0 0 0 0 0 0 0 0 0 0 0 0 0 0 0 0 0 0 0 0 0 0 0 0 0
0 0 0 0 0 0 0 0 0 0 0 0 0 0 0 0 0 0 0 0 0 0 0 0 0 0 0 0 0 0 0 0 0 0 0 0 0 0 0 0 0 0 0 0 0
0 0 0 0 0 0 0 0 0 0 0 0 0 0 0 0 0 0 0 0 0 0 0 0 0 0 0 0 0 0 0 0 0 0 0 0 0 0 0 0 0 0 0 0 0
0 0 0 0 0 0 0 0 0 0 0 0 0 0 0 0 0 0 0 0 0 0 0 0 0 0 0 0 0 0 0 0 0 0 0 0 0 -0 0 0 0 0 0 0 0
0 0 0 0 0 0 0 0 0 0 0 0 0 0 0 0 0 0 0 0 0 0 0 0 0 0 0 0 0 0 0 0 0 0 0 0 0 0 0 0 0 0 0 0 0
0 0 0 0 0 0 0 0 0 0 0 0 0 0 0 0 0 0 0 0 0 0 0 0 0 0 0 0 0 0 0 0 0 0 0 0 0 0 0 0 0 0 0 0 0
Wind_Speed_500mb
48 42 36 26 22 16 17 16 16 14 15 17 20 11 7 10 13 21 29 22 24 24 16 15 21 23 20 19 18 15 16 25 32 27 25 17 22 15 16 27 25 21 25 21 25
49 42 38 33 23 19 14 15 14 12 12 17 16 7 6 9 16 28 15 21 25 33 20 21 26 28 26 25 18 24 22 32 17 23 22 21 22 21 22 29 31 33 32 29 27
53 45 38 33 29 22 16 11 10 9 9 10 9 7 7 8 7 5 13 21 25 38 22 21 25 27 23 24 25 23 28 26 17 28 26 28 27 24 25 29 32 29 30 31 29
54 54 44 34 28 26 20 15 13 12 10 8 7 8 5 2 1 1 13 20 30 36 25 24 28 26 21 23 29 18 31 24 23 22 30 31 28 28 27 28 29 32 30 28 30
54 55 51 42 31 24 21 18 13 11 8 7 6 5 5 9 4 8 16 20 35 28 24 25 27 23 24 25 22 28 20 25 30 29 30 28 35 30 31 22 28 23 26 27 26
49 54 56 50 39 29 22 18 17 13 12 8 6 4 3 13 12 16 18 18 21 21 22 22 19 17 14 16 30 17 20 22 22 27 26 24 33 30 18 15 22 27 26 28 27
44 51 55 53 47 33 26 19 17 21 16 10 5 5 12 10 15 20 22 14 24 22 23 17 17 19 17 13 11 13 20 24 29 30 24 20 29 33 25 17 17 19 21 18 21
47 53 57 57 53 45 25 22 20 25 20 13 6 3 11 15 23 23 24 19 25 20 18 13 15 11 14 9 14 19 15 24 15 15 17 15 22 13 5 14 19 21 19 19 17
48 53 56 58 57 53 31 20 18 19 17 12 4 5 5 14 24 26 28 23 25 19 12 10 14 14 17 22 20 20 23 20 12 14 11 20 16 12 19 25 24 24 27 26 25
47 52 53 53 59 55 31 18 15 11 10 3 11 11 13 11 27 28 27 23 27 23 17 19 20 20 22 21 25 24 24 17 20 13 18 22 30 26 21 24 24 28 27 31 34
52 50 53 51 54 53 19 9 3 7 16 17 5 6 9 10 20 25 31 27 24 29 27 26 21 26 28 22 19 14 17 21 18 16 23 29 31 27 30 34 36 35 33 33 36
56 59 55 51 48 33 7 8 7 9 19 24 28 30 21 10 20 28 33 30 27 29 27 15 29 27 16 17 20 22 26 26 22 22 20 30 37 31 30 37 37 30 33 34 32
56 57 59 53 45 16 18 15 10 14 11 3 8 9 19 29 19 34 43 41 27 30 28 33 2 8 27 23 27 29 27 24 25 26 27 36 40 40 31 29 27 32 27 32 32
55 57 60 52 22 20 17 12 10 12 9 12 9 9 12 26 16 23 37 33 19 29 28 24 33 26 17 23 26 28 24 24 25 25 26 5 28 33 26 20 19 28 31 20 33
65 70 52 36 33 12 9 12 8 3 8 8 11 7 16 32 12 30 33 27 26 19 17 8 14 24 30 31 25 26 11 22 26 31 35 37 25 30 15 27 28 16 18 28 28
83 52 33 14 14 10 17 7 5 11 3 8 9 9 14 19 8 12 23 25 15 22 25 33 5 12 19 11 17 21 23 31 32 27 33 40 37 28 17 6 24 27 31 26 30
57 37 27 4 5 12 20 8 10 9 4 7 7 1 3 9 11 11 22 30 20 21 29 34 36 35 23 28 28 23 28 26 31 28 31 26 18 25 27 22 24 25 37 29 33
33 30 23 15 15 21 11 12 10 6 5 5 3 4 3 7 6 5 7 22 31 34 28 26 24 27 13 29 33 34 30 26 34 28 29 23 24 16 3 23 25 20 17 20 30
29 24 22 19 17 10 10 12 9 6 6 6 5 9 13 10 10 12 20 27 17 9 25 18 27 8 7 12 16 19 23 24 35 37 34 33 42 36 22 16 18 13 18 28 36
26 6 21 13 7 3 10 5 2 9 10 7 17 5 12 6 16 4 13 11 34 29 17 19 26 27 7 9 12 19 14 16 15 17 33 20 26 25 15 13 11 22 37 29 39
11 4 18 1 4 11 10 8 3 9 11 9 9 15 16 19 22 17 15 19 14 24 21 23 25 30 13 23 30 16 22 22 22 21 19 31 17 13 4 26 30 28 27 44 50
14 5 19 4 11 2 5 6 6 8 7 7 11 14 18 17 21 27 32 16 6 17 17 21 14 22 33 25 15 25 33 30 16 20 21 25 32 34 14 15 10 30 44 48 43
20 11 17 5 4 2 2 4 7 10 10 8 7 8 8 14 10 20 24 24 25 31 14 12 14 18 18 24 14 27 30 29 36 33 42 35 27 16 13 23 42 50 51 43 34
10 5 10 16 10 7 7 3 6 10 13 10 9 6 10 15 16 12 13 13 15 5 13 13 25 25 24 25 18 23 26 31 33 26 38 42 57 45 44 39 40 49 49 39 31
12 5 5 7 6 11 5 4 11 6 5 7 4 1 3 4 11 18 22 32 32 40 35 9 20 30 35 39 38 39 41 43 44 47 48 48 54 48 45 43 41 47 41 37 37
6 8 5 10 9 12 7 1 7 6 4 4 9 12 18 13 16 19 20 18 14 6 9 13 13 26 34 29 30 39 43 43 45 46 52 54 56 48 53 37 40 41 45 48 47
3 5 3 6 4 6 2 5 2 11 11 16 6 11 15 23 31 35 40 37 19 5 9 10 11 11 20 22 22 29 35 34 34 40 44 45 45 33 36 37 42 53 55 54 59
Wind_Direction_500mb
9 6 0 357 344 341 329 320 311 303 291 280 267 243 245 252 250 252 247 225 226 216 195 182 179 187 186 198 206 213 239 237 229 238 240 245 237 208 280 273 275 270 283 285 312
10 7 4 356 354 342 337 326 321 310 291 272 260 266 274 271 271 262 239 216 204 198 168 166 166 170 184 200 202 215 228 237 235 240 252 249 254 269 279 273 269 273 274 279 292
10 10 8 4 358 357 351 346 331 313 284 274 288 296 279 293 277 187 215 191 187 172 171 174 170 174 185 191 198 208 239 241 233 244 258 266 270 262 262 269 271 283 284 279 278
18 12 8 5 1 358 354 355 356 346 335 323 298 279 274 265 173 206 163 162 168 163 163 164 174 184 191 198 195 219 235 253 254 257 255 264 275 263 258 268 278 277 278 279 274
18 18 11 2 355 352 350 343 356 1 348 324 297 284 266 254 236 167 146 149 159 166 177 180 187 200 204 199 193 227 223 234 245 253 263 276 269 272 270 269 268 269 280 276 272
14 13 14 10 354 341 341 342 332 341 348 333 311 282 242 238 195 162 152 159 175 174 179 182 197 202 191 196 212 196 234 241 247 251 254 255 268 260 256 265 265 277 272 273 269
359 1 3 5 4 341 323 327 324 321 315 319 297 260 257 245 188 170 156 161 169 160 157 170 170 188 168 174 192 199 236 225 245 251 251 277 264 250 259 264 262 275 282 278 279
340 345 348 350 352 351 316 303 309 310 296 294 277 250 253 228 195 180 175 163 167 162 157 160 164 183 225 138 181 227 242 247 173 217 215 221 263 141 252 219 274 278 275 274 274
329 333 338 341 340 344 324 289 295 302 284 278 258 220 223 209 199 192 184 181 175 177 171 163 189 220 191 213 213 203 252 210 235 215 239 218 275 154 270 283 283 278 273 268 271
328 329 331 335 334 336 325 288 303 287 258 231 234 256 222 198 181 175 180 176 176 175 178 199 207 218 221 219 234 236 225 229 248 178 218 256 263 267 263 261 270 274 268 268 270
328 328 327 329 329 332 312 269 327 209 211 240 254 283 139 146 156 182 176 169 179 197 209 206 227 221 225 229 281 267 261 257 255 264 267 265 270 273 270 273 275 273 270 270 272
325 323 321 322 325 337 334 208 277 309 294 260 252 241 233 179 181 182 182 186 197 210 211 195 232 247 247 243 236 239 253 253 264 260 272 270 270 269 265 269 269 274 276 276 289
325 322 319 315 319 303 318 245 251 322 270 247 198 211 211 199 198 180 185 201 204 216 207 236 168 306 214 217 232 238 250 266 274 289 275 265 268 256 239 229 261 263 267 282 292
334 327 317 311 319 306 308 237 252 313 273 135 179 146 170 183 220 194 192 195 216 230 222 249 246 221 224 239 227 250 235 251 270 272 276 153 287 286 265 266 244 256 267 297 303
341 327 309 301 295 301 255 197 260 228 259 114 106 149 163 186 109 188 197 209 235 201 209 210 220 222 233 239 224 256 289 264 277 276 281 268 264 268 247 224 259 268 277 294 305
346 336 324 302 284 247 192 206 192 229 177 108 117 147 163 191 146 139 190 216 260 245 226 267 166 270 257 270 233 268 268 258 258 264 262 264 253 270 258 293 290 304 306 295 301
356 359 7 55 128 163 166 179 223 258 140 95 63 10 120 183 200 174 185 204 224 214 232 239 240 237 236 258 231 242 259 268 264 251 255 260 260 269 292 285 293 310 303 305 307
0 8 23 33 165 154 167 218 251 60 23 75 321 137 228 17 143 13 238 238 218 254 271 277 258 220 230 239 268 269 251 258 272 271 283 295 261 267 122 287 288 304 287 297 318
351 16 21 42 148 159 239 231 8 9 14 326 273 266 220 219 309 333 301 288 311 263 251 265 246 140 265 268 261 261 241 282 283 280 272 269 261 253 217 260 266 246 275 296 307
351 50 16 57 104 159 255 350 331 11 324 302 284 222 266 254 210 219 238 228 241 271 299 279 281 258 175 227 219 256 338 245 235 273 271 259 286 279 247 268 277 297 296 296 303
8 208 2 93 67 237 273 40 1 32 340 316 298 284 275 270 263 222 226 223 228 251 234 254 256 263 205 231 254 212 232 236 286 263 273 286 271 96 295 280 292 290 288 301 310
351 229 350 114 225 253 291 2 322 344 325 280 285 273 266 276 267 252 241 262 295 331 293 295 293 265 262 271 243 258 276 268 238 259 239 257 267 278 314 311 295 278 290 308 307
344 320 343 17 275 154 31 273 328 337 327 316 297 295 300 268 272 274 249 266 280 239 235 217 231 254 247 232 241 255 258 247 263 266 264 268 264 274 272 238 271 299 300 300 300
354 306 25 45 65 345 341 303 301 334 297 278 265 249 271 259 228 261 261 281 262 245 359 307 261 254 268 283 301 281 278 272 257 254 265 263 279 283 284 291 302 308 303 296 289
19 63 29 350 46 346 293 320 293 328 1 350 276 25 48 307 263 241 253 266 263 270 281 273 249 257 267 275 274 274 271 262 259 259 259 275 281 288 298 301 308 308 299 294 285
28 3 331 325 309 295 157 173 321 9 279 258 259 308 304 241 240 287 307 306 283 270 244 232 260 262 272 272 271 276 272 266 261 266 270 276 277 280 286 301 296 292 292 291 293
83 42 333 143 297 277 337 20 225 313 269 250 337 310 283 282 295 277 272 267 242 230 233 231 250 256 265 283 295 274 265 263 261 265 269 273 285 310 302 303 304 305 306 300 294
Wind_Speed_850mb
48 42 36 26 22 16 17 16 16 14 15 17 20 11 7 10 13 21 29 22 24 24 16 15 21 23 20 19 18 15 16 25 32 27 25 17 22 15 16 27 25 21 25 21 25
49 42 38 33 23 19 14 15 14 12 12 17 16 7 6 9 16 28 15 21 25 33 20 21 26 28 26 25 18 24 22 32 17 23 22 21 22 21 22 29 31 33 32 29 27
53 45 38 33 29 22 16 11 10 9 9 10 9 7 7 8 7 5 13 21 25 38 22 21 25 27 23 24 25 23 28 26 17 28 26 28 27 24 25 29 32 29 30 31 29
54 54 44 34 28 26 20 15 13 12 10 8 7 8 5 2 1 1 13 20 30 36 25 24 28 26 21 23 29 18 31 24 23 22 30 31 28 28 27 28 29 32 30 28 30
54 55 51 42 31 24 21 18 13 11 8 7 6 5 5 9 4 8 16 20 35 28 24 25 27 23 24 25 22 28 20 25 30 29 30 28 35 30 31 22 28 23 26 27 26
49 54 56 50 39 29 22 18 17 13 12 8 6 4 3 13 12 16 18 18 21 21 22 22 19 17 14 16 30 17 20 22 22 27 26 24 33 30 18 15 22 27 26 28 27
44 51 55 53 47 33 26 19 17 21 16 10 5 5 12 10 15 20 22 14 24 22 23 17 17 19 17 13 11 13 20 24 29 30 24 20 29 33 25 17 17 19 21 18 21
47 53 57 57 53 45 25 22 20 25 20 13 6 3 11 15 23 23 24 19 25 20 18 13 15 11 14 9 14 19 15 24 15 15 17 15 22 13 5 14 19 21 19 19 17
48 53 56 58 57 53 31 20 18 19 17 12 4 5 5 14 24 26 28 23 25 19 12 10 14 14 17 22 20 20 23 20 12 14 11 20 16 12 19 25 24 24 27 26 25
47 52 53 53 59 55 31 18 15 11 10 3 11 11 13 11 27 28 27 23 27 23 17 19 20 20 22 21 25 24 24 17 20 13 18 22 30 26 21 24 24 28 27 31 34
52 50 53 51 54 53 19 9 3 7 16 17 5 6 9 10 20 25 31 27 24 29 27 26 21 26 28 22 19 14 17 21 18 16 23 29 31 27 30 34 36 35 33 33 36
56 59 55 51 48 33 7 8 7 9 19 24 28 30 21 10 20 28 33 30 27 29 27 15 29 27 16 17 20 22 26 26 22 22 20 30 37 31 30 37 37 30 33 34 32
56 57 59 53 45 16 18 15 10 14 11 3 8 9 19 29 19 34 43 41 27 30 28 33 2 8 27 23 27 29 27 24 25 26 27 36 40 40 31 29 27 32 27 32 32
55 57 60 52 22 20 17 12 10 12 9 12 9 9 12 26 16 23 37 33 19 29 28 24 33 26 17 23 26 28 24 24 25 25 26 5 28 33 26 20 19 28 31 20 33
65 70 52 36 33 12 9 12 8 3 8 8 11 7 16 32 12 30 33 27 26 19 17 8 14 24 30 31 25 26 11 22 26 31 35 37 25 30 15 27 28 16 18 28 28
83 52 33 14 14 10 17 7 5 11 3 8 9 9 14 19 8 12 23 25 15 22 25 33 5 12 19 11 17 21 23 31 32 27 33 40 37 28 17 6 24 27 31 26 30
57 37 27 4 5 12 20 8 10 9 4 7 7 1 3 9 11 11 22 30 20 21 29 34 36 35 23 28 28 23 28 26 31 28 31 26 18 25 27 22 24 25 37 29 33
33 30 23 15 15 21 11 12 10 6 5 5 3 4 3 7 6 5 7 22 31 34 28 26 24 27 13 29 33 34 30 26 34 28 29 23 24 16 3 23 25 20 17 20 30
29 24 22 19 17 10 10 12 9 6 6 6 5 9 13 10 10 12 20 27 17 9 25 18 27 8 7 12 16 19 23 24 35 37 34 33 42 36 22 16 18 13 18 28 36
26 6 21 13 7 3 10 5 2 9 10 7 17 5 12 6 16 4 13 11 34 29 17 19 26 27 7 9 12 19 14 16 15 17 33 20 26 25 15 13 11 22 37 29 39
11 4 18 1 4 11 10 8 3 9 11 9 9 15 16 19 22 17 15 19 14 24 21 23 25 30 13 23 30 16 22 22 22 21 19 31 17 13 4 26 30 28 27 44 50
14 5 19 4 11 2 5 6 6 8 7 7 11 14 18 17 21 27 32 16 6 17 17 21 14 22 33 25 15 25 33 30 16 20 21 25 32 34 14 15 10 30 44 48 43
20 11 17 5 4 2 2 4 7 10 10 8 7 8 8 14 10 20 24 24 25 31 14 12 14 18 18 24 14 27 30 29 36 33 42 35 27 16 13 23 42 50 51 43 34
10 5 10 16 10 7 7 3 6 10 13 10 9 6 10 15 16 12 13 13 15 5 13 13 25 25 24 25 18 23 26 31 33 26 38 42 57 45 44 39 40 49 49 39 31
12 5 5 7 6 11 5 4 11 6 5 7 4 1 3 4 11 18 22 32 32 40 35 9 20 30 35 39 38 39 41 43 44 47 48 48 54 48 45 43 41 47 41 37 37
6 8 5 10 9 12 7 1 7 6 4 4 9 12 18 13 16 19 20 18 14 6 9 13 13 26 34 29 30 39 43 43 45 46 52 54 56 48 53 37 40 41 45 48 47
3 5 3 6 4 6 2 5 2 11 11 16 6 11 15 23 31 35 40 37 19 5 9 10 11 11 20 22 22 29 35 34 34 40 44 45 45 33 36 37 42 53 55 54 59
Wind_Direction_850mb
9 6 0 357 344 341 329 320 311 303 291 280 267 243 245 252 250 252 247 225 226 216 195 182 179 187 186 198 206 213 239 237 229 238 240 245 237 208 280 273 275 270 283 285 312
10 7 4 356 354 342 337 326 321 310 291 272 260 266 274 271 271 262 239 216 204 198 168 166 166 170 184 200 202 215 228 237 235 240 252 249 254 269 279 273 269 273 274 279 292
10 10 8 4 358 357 351 346 331 313 284 274 288 296 279 293 277 187 215 191 187 172 171 174 170 174 185 191 198 208 239 241 233 244 258 266 270 262 262 269 271 283 284 279 278
18 12 8 5 1 358 354 355 356 346 335 323 298 279 274 265 173 206 163 162 168 163 163 164 174 184 191 198 195 219 235 253 254 257 255 264 275 263 258 268 278 277 278 279 274
18 18 11 2 355 352 350 343 356 1 348 324 297 284 266 254 236 167 146 149 159 166 177 180 187 200 204 199 193 227 223 234 245 253 263 276 269 272 270 269 268 269 280 276 272
14 13 14 10 354 341 341 342 332 341 348 333 311 282 242 238 195 162 152 159 175 174 179 182 197 202 191 196 212 196 234 241 247 251 254 255 268 260 256 265 265 277 272 273 269
359 1 3 5 4 341 323 327 324 321 315 319 297 260 257 245 188 170 156 161 169 160 157 170 170 188 168 174 192 199 236 225 245 251 251 277 264 250 259 264 262 275 282 278 279
340 345 348 350 352 351 316 303 309 310 296 294 277 250 253 228 195 180 175 163 167 162 157 160 164 183 225 138 181 227 242 247 173 217 215 221 263 141 252 219 274 278 275 274 274
329 333 338 341 340 344 324 289 295 302 284 278 258 220 223 209 199 192 184 181 175 177 171 163 189 220 191 213 213 203 252 210 235 215 239 218 275 154 270 283 283 278 273 268 271
328 329 331 335 334 336 325 288 303 287 258 231 234 256 222 198 181 175 180 176 176 175 178 199 207 218 221 219 234 236 225 229 248 178 218 256 263 267 263 261 270 274 268 268 270
328 328 327 329 329 332 312 269 327 209 211 240 254 283 139 146 156 182 176 169 179 197 209 206 227 221 225 229 281 267 261 257 255 264 267 265 270 273 270 273 275 273 270 270 272
325 323 321 322 325 337 334 208 277 309 294 260 252 241 233 179 181 182 182 186 197 210 211 195 232 247 247 243 236 239 253 253 264 260 272 270 270 269 265 269 269 274 276 276 289
325 322 319 315 319 303 318 245 251 322 270 247 198 211 211 199 198 180 185 201 204 216 207 236 168 306 214 217 232 238 250 266 274 289 275 265 268 256 239 229 261 263 267 282 292
334 327 317 311 319 306 308 237 252 313 273 135 179 146 170 183 220 194 192 195 216 230 222 249 246 221 224 239 227 250 235 251 270 272 276 153 287 286 265 266 244 256 267 297 303
341 327 309 301 295 301 255 197 260 228 259 114 106 149 163 186 109 188 197 209 235 201 209 210 220 222 233 239 224 256 289 264 277 276 281 268 264 268 247 224 259 268 277 294 305
346 336 324 302 284 247 192 206 192 229 177 108 117 147 163 191 146 139 190 216 260 245 226 267 166 270 257 270 233 268 268 258 258 264 262 264 253 270 258 293 290 304 306 295 301
356 359 7 55 128 163 166 179 223 258 140 95 63 10 120 183 200 174 185 204 224 214 232 239 240 237 236 258 231 242 259 268 264 251 255 260 260 269 292 285 293 310 303 305 307
0 8 23 33 165 154 167 218 251 60 23 75 321 137 228 17 143 13 238 238 218 254 271 277 258 220 230 239 268 269 251 258 272 271 283 295 261 267 122 287 288 304 287 297 318
351 16 21 42 148 159 239 231 8 9 14 326 273 266 220 219 309 333 301 288 311 263 251 265 246 140 265 268 261 261 241 282 283 280 272 269 261 253 217 260 266 246 275 296 307
351 50 16 57 104 159 255 350 331 11 324 302 284 222 266 254 210 219 238 228 241 271 299 279 281 258 175 227 219 256 338 245 235 273 271 259 286 279 247 268 277 297 296 296 303
8 208 2 93 67 237 273 40 1 32 340 316 298 284 275 270 263 222 226 223 228 251 234 254 256 263 205 231 254 212 232 236 286 263 273 286 271 96 295 280 292 290 288 301 310
351 229 350 114 225 253 291 2 322 344 325 280 285 273 266 276 267 252 241 262 295 331 293 295 293 265 262 271 243 258 276 268 238 259 239 257 267 278 314 311 295 278 290 308 307
344 320 343 17 275 154 31 273 328 337 327 316 297 295 300 268 272 274 249 266 280 239 235 217 231 254 247 232 241 255 258 247 263 266 264 268 264 274 272 238 271 299 300 300 300
354 306 25 45 65 345 341 303 301 334 297 278 265 249 271 259 228 261 261 281 262 245 359 307 261 254 268 283 301 281 278 272 257 254 265 263 279 283 284 291 302 308 303 296 289
19 63 29 350 46 346 293 320 293 328 1 350 276 25 48 307 263 241 253 266 263 270 281 273 249 257 267 275 274 274 271 262 259 259 259 275 281 288 298 301 308 308 299 294 285
28 3 331 325 309 295 157 173 321 9 279 258 259 308 304 241 240 287 307 306 283 270 244 232 260 262 272 272 271 276 272 266 261 266 270 276 277 280 286 301 296 292 292 291 293
83 42 333 143 297 277 337 20 225 313 269 250 337 310 283 282 295 277 272 267 242 230 233 231 250 256 265 283 295 274 265 263 261 265 269 273 285 310 302 303 304 305 306 300 294